This is the latest recevied weather packets stored in our database for station/object WE8L. If no packets are shown the sender has not sent any weather packets the latest 10 day(s).
| Time | Temp. | Humidity | Pressure | Rain* | Wind** | Luminosity | Snow |
|---|---|---|---|---|---|---|---|
| 1777846299 | 16.11° C | 38% | 1016.5 hPa | 0 mm | - | 52 W/m² | - |
| 1777845996 | 16.11° C | 38% | 1016.4 hPa | 0 mm | - | 48 W/m² | - |
| 1777845692 | 16.67° C | 37% | 1016.6 hPa | 0 mm | - | 49 W/m² | - |
| 1777845390 | 16.67° C | 35% | 1016.7 hPa | 0 mm | - | 52 W/m² | - |
| 1777845086 | 16.67° C | 37% | 1016.7 hPa | 0 mm | - | 72 W/m² | - |
| 1777844785 | 16.67° C | 37% | 1016.7 hPa | 0 mm | - | 65 W/m² | - |
| 1777844481 | 16.67° C | 36% | 1016.7 hPa | 0 mm | - | 132 W/m² | - |
| 1777844180 | 16.11° C | 35% | 1016.9 hPa | 0 mm | - | 89 W/m² | - |
| 1777843876 | 16.11° C | 37% | 1016.7 hPa | 0 mm | - | 76 W/m² | - |
| 1777843574 | 16.11° C | 37% | 1016.5 hPa | 0 mm | - | 71 W/m² | - |
| 1777843271 | 15.56° C | 37% | 1016.6 hPa | 0 mm | - | 56 W/m² | - |
| 1777842969 | 15.56° C | 37% | 1016.7 hPa | 0 mm | - | 49 W/m² | - |
| 1777842663 | 15.56° C | 36% | 1017.3 hPa | 0 mm | - | 31 W/m² | - |
| 1777842360 | 15.56° C | 38% | 1017.2 hPa | 0 mm | - | 52 W/m² | - |
| 1777842056 | 15.56° C | 37% | 1017.4 hPa | 0 mm | - | 66 W/m² | - |
| 1777841753 | 15.56° C | 36% | 1017.6 hPa | 0 mm | - | 64 W/m² | - |
| 1777841449 | 15.56° C | 36% | 1017.7 hPa | 0 mm | - | 57 W/m² | - |
| 1777841146 | 15.56° C | 38% | 1017.9 hPa | 0 mm | - | 42 W/m² | - |
| 1777840843 | 15.56° C | 38% | 1017.8 hPa | 0 mm | - | 47 W/m² | - |
| 1777840541 | 15.56° C | 37% | 1017.8 hPa | 0 mm | - | 52 W/m² | - |
| 1777840238 | 15.56° C | 37% | 1018 hPa | 0 mm | - | 73 W/m² | - |
| 1777839936 | 16.11° C | 38% | 1017.8 hPa | 0 mm | - | 69 W/m² | - |
| 1777839633 | 16.11° C | 35% | 1017.7 hPa | 0 mm | - | 107 W/m² | - |
| 1777839331 | 16.11° C | 36% | 1017.7 hPa | 0 mm | - | 125 W/m² | - |
| 1777839028 | 16.11° C | 37% | 1017.9 hPa | 0 mm | - | 89 W/m² | - |
* Rain latest hour (hover to see other rain measurements)
** Current wind speed in m/s (hover to see current wind gust speed)